Zurück zum Katalog

GAOFEN 11 04

AktivWissenschaftSSO
NORAD 54818·PAYLOAD·🇨🇳 China

Gestartet Dec 27, 2022 von Taiyuan Satellite Launch Center

Loading…

Nächste Überflüge (nächste 24 Stunden)

TLE

AktuellSource: Space-Track

Epoche: Sep 14, 2026, 15:20 UTC

1 54818U 22176A   26257.63929662  .00004494  00000-0  19032-3 0  9998
2 54818  97.4356  29.9351 0007688  21.1259 339.0294 15.23653850206871

Verfolge GAOFEN 11 04 in Echtzeit mit AllMySat

Download on the App Store